Date,TemperatureHighF,TemperatureAvgF,TemperatureLowF,DewpointHighF,DewpointAvgF,DewpointLowF,HumidityHigh,HumidityAvg,HumidityLow,PressureMaxIn,PressureMinIn,WindSpeedMaxMPH,WindSpeedAvgMPH,GustSpeedMaxMPH,PrecipitationSumIn
2012-10-1,71.2,55.6,44.2,59.3,49.6,41.1,93,81,63,30.32,30.08,0,0,0,0.00
2012-10-2,60.6,50.7,41.2,47.4,40.2,34.8,90,70,39,30.24,30.11,0,0,0,0.00
2012-10-3,63.5,46.7,34.3,43.5,36.5,30.2,89,70,40,30.35,30.23,0,0,0,0.00
2012-10-4,63.1,47.3,34.7,43.4,37.4,30.2,86,70,47,30.26,30.19,0,0,0,0.00
2012-10-5,66.2,49.1,36.3,45.4,38.1,32.4,88,69,39,30.26,30.16,0,0,0,0.00
2012-10-6,68.4,51.0,37.6,46.2,38.8,32.3,84,66,36,30.21,30.07,0,0,0,0.00
2012-10-7,70.2,52.6,39.4,50.5,42.8,34.6,87,71,44,30.07,29.89,0,0,0,0.00
2012-10-8,67.5,52.7,41.7,50.2,44.2,37.8,89,74,51,29.99,29.89,0,0,0,0.00
2012-10-9,54.1,47.9,42.4,49.4,44.1,39.4,90,87,82,30.09,29.98,0,0,0,0.00
2012-10-10,53.4,46.5,39.0,49.0,43.3,36.3,92,89,84,30.00,29.94,0,0,0,0.00
2012-10-11,55.9,49.4,42.6,49.1,45.3,39.6,90,86,77,29.96,29.75,0,0,0,0.00
2012-10-12,54.3,49.8,41.5,51.5,47.4,38.8,94,92,88,29.95,29.77,0,0,0,0.00
2012-10-13,58.6,55.4,52.3,56.6,53.5,50.6,95,93,90,30.09,29.95,0,0,0,0.00
2012-10-14,59.4,57.0,55.9,57.1,55.6,54.5,96,95,92,30.07,29.83,0,0,0,0.00
2012-10-15,59.5,55.7,49.1,58.7,54.2,47.7,97,95,90,29.91,29.48,0,0,0,0.00
2012-10-16,57.6,50.6,45.3,56.1,47.2,42.3,95,88,78,30.24,29.52,0,0,0,0.00
2012-10-17,55.6,47.6,40.3,48.3,44.0,38.4,94,88,71,30.30,30.16,0,0,0,0.00
2012-10-18,53.8,49.4,43.3,52.4,47.2,41.2,96,92,89,30.17,29.74,0,0,0,0.00
2012-10-19,57.0,50.9,44.8,55.4,49.2,43.2,96,94,92,29.79,29.71,0,0,0,0.00
2012-10-20,48.9,44.1,41.5,45.3,41.8,39.4,94,92,86,29.85,29.75,0,0,0,0.00
2012-10-21,49.5,42.6,36.1,44.7,39.8,34.1,94,90,81,29.84,29.74,0,0,0,0.00
2012-10-22,44.4,39.5,34.2,43.1,38.0,32.3,95,94,93,29.74,29.50,0,0,0,0.00
2012-10-23,49.3,43.5,39.9,46.0,41.5,38.3,96,93,87,29.84,29.61,0,0,0,0.00
2012-10-24,49.3,42.1,37.9,47.3,40.5,36.0,96,94,91,30.12,29.81,0,0,0,0.02
2012-10-25,50.2,43.8,40.3,47.4,42.1,38.7,96,94,89,30.36,30.12,0,0,0,0.92
2012-10-26,47.5,43.4,40.1,46.7,42.2,38.5,97,95,94,30.27,29.98,0,0,0,0.02
2012-10-27,52.7,49.1,47.5,52.1,48.1,46.7,98,96,94,29.99,29.72,0,0,0,0.04
2012-10-28,57.0,53.7,51.1,55.6,52.9,50.5,99,97,94,29.91,29.71,0,0,0,0.00
2012-10-29,60.3,55.7,51.1,56.6,54.0,50.2,99,94,85,29.97,29.67,0,0,0,0.00
2012-10-30,57.7,54.8,52.3,57.2,54.1,51.7,99,98,95,29.94,29.72,0,0,0,0.02
2012-10-31,57.0,54.5,52.0,56.7,54.2,51.4,99,99,98,29.73,29.58,0,0,0,0.00